Home   Weather   Paraná   Past weeks
Flag for Argentina

Past Weather in Paraná, Entre Rios, Argentina — Yesterday and Last 2 Weeks

Now
53 °F

Thunderstorms. Low clouds.


Feels Like: 50 °F
Forecast: 57 / 53 °F
Wind: 8 mph from West

Location: Sauce Viejo Aerodrome

Current Time: Jun 16, 2019 at 12:38:58 pm

Latest Report: Jun 16, 2019 at 11:00 am


Visibility: 7 mi

Pressure: 30.14 "Hg

Humidity: 95%

Dew Point: 51 °F

Location of ParanáLocation

Past Weather in Paraná — Graph

°F

Paraná Temperature Yesterday

Maximum temperature yesterday: 60 °F (at 12:00 pm)
Minimum temperature yesterday: 56 °F (at 7:00 pm)
Average temperature yesterday: 57 °F

High & Low Weather Summary for the Past Weeks

 TemperatureHumidityPressure
High76 °F (Jun 6, 3:00 pm)100% (Jun 1, 9:00 pm)30.32 "Hg (Jun 1, 9:00 pm)
Low38 °F (Jun 8, 7:00 am)32% (Jun 8, 5:00 pm)29.72 "Hg (Jun 13, 4:00 pm)
Average60 °F86%30.01 "Hg
* Reported Jun 1 11:00 am — Jun 16 11:00 am, Paraná. Weather by CustomWeather, © 2019

Note: Actual official high and low records may vary slightly from our data, if they occured in-between our weather recording intervals... More about our weather records

Advertising

Paraná Weather History for the Previous 24 Hours

Scroll right to see more
 ConditionsComfort  
Time TempWeatherWind HumidityBarometerVisibility
11:00 am
Sun, Jun 16
53 °FThunderstorms. Low clouds.8 mph95%30.14 "Hg7 mi
10:00 am52 °FThunderstorms. Low clouds.10 mph95%30.14 "Hg7 mi
9:00 am52 °FThunderstorms. Low clouds.10 mph97%30.11 "Hg7 mi
8:00 am53 °FThunderstorms. Low clouds.5 mph94%30.13 "Hg7 mi
7:00 am52 °FThunderstorms. Low clouds.13 mph95%30.05 "Hg7 mi
6:00 am52 °FDrizzle. Low clouds.12 mph94%30.04 "Hg3 mi
5:00 am53 °FDrizzle. Low clouds.14 mph92%30.04 "Hg4 mi
4:00 am53 °FDrizzle. Low clouds.8 mph95%30.05 "Hg3 mi
3:00 am54 °FDrizzle. Low clouds.12 mph92%30.03 "Hg6 mi
2:00 am54 °FLow clouds.12 mph93%30.01 "Hg7 mi
1:00 am55 °FLight rain. Low clouds.9 mph94%30.03 "Hg6 mi
12:00 am56 °FThundershowers. Low clouds.8 mph92%30.04 "Hg4 mi
11:00 pm
Sat, Jun 15
56 °FThundershowers. Overcast.16 mph94%30.05 "Hg3 mi
10:00 pm57 °FDrizzle. Low clouds.13 mph92%30.01 "Hg4 mi
9:00 pm57 °FDrizzle. Low clouds.15 mph91%30.02 "Hg4 mi
8:00 pm57 °FLow clouds.16 mph92%30.01 "Hg7 mi
7:00 pm56 °FLow clouds.13 mph94%30.00 "Hg7 mi
6:00 pm56 °FDrizzle. Low clouds.9 mph94%29.99 "Hg4 mi
5:00 pm57 °FDrizzle. Low clouds.12 mph91%29.99 "Hg3 mi
4:00 pm56 °FDrizzle. Low clouds.14 mph89%29.97 "Hg4 mi
3:00 pm57 °FDrizzle. Low clouds.17 mph96%29.95 "Hg3 mi
2:00 pm58 °FDrizzle. Low clouds.18 mph93%29.97 "Hg3 mi
1:00 pm59 °FLow clouds.13 mph96%30.00 "Hg7 mi
12:00 pm60 °FOvercast.16 mph92%29.99 "Hg7 mi
Weather by CustomWeather, © 2019

See weather overview